Home > Weather > Papeete > Past weeks

Flag for French Polynesia Past Weather in Papeete, Tahiti, French Polynesia — Yesterday and Last 2 Weeks

Now
75 °F

Partly sunny.


Feels Like: 77 °F
Forecast: 72 / 83 °F
Wind: 6 mph from East

Location: Tahiti-Faaa

Current Time: Jul 24, 2016 at 8:43:34 AM

Latest Report: Jul 24, 2016 at 8:00 AM


Visibility: N/A

Pressure: 30.04 "Hg

Humidity: 61%

Dew Point: 61 °F

Location of PapeeteLocation

Past Weather in Papeete — Graph

°F

Papeete Temperature Yesterday

Maximum temperature yesterday: 84 °F (at 10:00 AM)
Minimum temperature yesterday: 73 °F (at 4:30 AM)
Average temperature yesterday: 78 °F

High & Low Weather Summary for the Past Weeks

 TemperatureHumidityPressure
High88 °F (Jul 20, 1:00 PM)94% (Jul 13, 1:43 AM)30.07 "Hg (Jul 13, 1:43 AM)
Low70 °F (Jul 12, 1:00 AM)43% (Jul 23, 3:30 PM)29.83 "Hg (Jul 12, 1:30 PM)
Average79 °F72%29.97 "Hg
* Reported Jul 9 7:00 AM — Jul 24 7:30 AM, Papeete, Weather by CustomWeather, © 2016

Note: Actual official high and low records may vary slightly from our data, if they occured in-between our weather recording intervals... More about our weather records

Advertising

Papeete Weather History for the Previous 24 Hours

Scroll right to see more
 ConditionsComfort  
Time TempWeatherWind HumidityBarometerVisibility
7:30 AM
Sun, Jul 24
73 °FPartly sunny.6 mph65%30.01 "HgN/A
7:00 AM73 °FPartly sunny.3 mph65%30.01 "HgN/A
6:30 AM73 °FPartly sunny.3 mph65%30.01 "HgN/A
6:00 AM73 °FPassing clouds.3 mph65%30.01 "HgN/A
5:00 AM73 °FOvercast.No wind65%30.01 "HgN/A
4:30 AM73 °FPassing clouds.5 mph65%30.01 "HgN/A
4:00 AM75 °FPassing clouds.2 mph61%30.01 "HgN/A
3:30 AM77 °FOvercast.6 mph57%30.01 "HgN/A
3:00 AM77 °FPassing clouds.6 mph61%30.01 "HgN/A
2:30 AM75 °FPassing clouds.7 mph65%30.01 "HgN/A
2:00 AM75 °FPassing clouds.7 mph65%30.01 "HgN/A
1:30 AM73 °FPassing clouds.7 mph69%30.01 "HgN/A
1:00 AM73 °FPassing clouds.2 mph69%30.01 "HgN/A
12:30 AM73 °FPassing clouds.5 mph69%30.01 "HgN/A
12:00 AM75 °FPassing clouds.5 mph69%30.01 "HgN/A
11:30 PM
Sat, Jul 23
73 °FPassing clouds.6 mph69%30.01 "HgN/A
11:00 PM73 °FPassing clouds.2 mph69%30.01 "HgN/A
10:30 PM73 °FPassing clouds.3 mph69%30.01 "HgN/A
10:00 PM75 °FPassing clouds.5 mph65%30.01 "HgN/A
9:30 PM73 °FPassing clouds.5 mph65%30.01 "HgN/A
9:00 PM75 °FPassing clouds.6 mph61%30.01 "HgN/A
8:30 PM75 °FPassing clouds.6 mph61%29.98 "HgN/A
8:00 PM75 °FPassing clouds.7 mph61%29.98 "HgN/A
7:30 PM75 °FPassing clouds.6 mph61%29.98 "HgN/A
7:00 PM79 °FPassing clouds.7 mph58%29.98 "HgN/A
6:30 PM79 °FPassing clouds.7 mph54%29.95 "HgN/A
6:00 PM79 °FPassing clouds.7 mph61%29.98 "HgN/A
5:30 PM81 °FPartly sunny.3 mph48%29.95 "HgN/A
5:00 PM82 °FPartly sunny.7 mph62%29.95 "HgN/A
4:30 PM82 °FPartly sunny.3 mph58%29.95 "HgN/A
4:00 PM82 °FPartly sunny.7 mph58%29.92 "HgN/A
3:30 PM84 °FPartly sunny.14 mph43%29.92 "HgN/A
3:00 PM84 °FPartly sunny.16 mph48%29.92 "HgN/A
2:30 PM84 °FPartly sunny.17 mph51%29.92 "HgN/A
2:00 PM84 °FPartly sunny.21 mph51%29.92 "HgN/A
1:30 PM84 °FPartly sunny.21 mph55%29.95 "HgN/A
1:00 PM84 °FScattered clouds.17 mph55%29.98 "HgN/A
12:30 PM82 °FScattered clouds.12 mph62%29.98 "HgN/A
12:00 PM81 °FScattered clouds.10 mph66%30.01 "HgN/A
11:36 AM82 °FScattered showers. Scattered clouds.10 mph62%30.01 "HgN/A
11:00 AM82 °FScattered clouds.6 mph62%30.01 "HgN/A
10:30 AM82 °FPassing clouds.5 mph62%30.01 "HgN/A
10:00 AM84 °FPassing clouds.3 mph58%30.01 "HgN/A
9:30 AM82 °FPassing clouds.3 mph62%30.01 "HgN/A
9:00 AM81 °FPassing clouds.5 mph70%30.01 "HgN/A
8:30 AM81 °FPassing clouds.2 mph70%30.01 "HgN/A
8:00 AM79 °FPassing clouds.5 mph74%30.01 "HgN/A
Weather by CustomWeather, © 2016

See weather overviewHow to use our weather pages